sat.trackr.live / text

‹ back to catalog

SNIPE 4

NORAD 56744 · 2023-072B

PAYLOAD ACTIVE UNKNOWN

§ Identity

Operator
Country
SKOR
Launch date
2023-05-25
Launch site
NSC
Launch vehicle
Mass (kg)
RCS (m²)

External: N2YO · Heavens-Above · Gunter

§ Orbital elements

Epoch: 2026-05-25T04:11:56.875776Z

Period
93.43 min
Inclination
97.5280°
Eccentricity
0.0006599
Mean motion
15.41320536 rev/d
Perigee alt
437.7 km
Apogee alt
446.7 km
Semi-major
6,820.3 km
B*
4.9402e-4
RAAN
350.4655°
Arg perigee
60.0460°
Mean anomaly
300.1440°
Rev number
16,656

§ Raw data

SNIPE 41 56744U 23072B   26145.17496384  .00020543  00000+0  49402-3 0  99952 56744  97.5280 350.4655 0006599  60.0460 300.1440 15.41320536166568

JSON: /api/v1/satellites/56744 · /tle

For live sub-satellite position, see the globe view (requires WebGL).

§ Visibility from observer

Set your observer location to see the next 7 days of passes ≥ 10°. The values pass through the URL so the page stays shareable.

No JS? Fill the form by hand. The geolocation button needs JavaScript.

§ Radio — SatNOGS DB

ModeDescriptionDownlinkUplink
FSK AX.100 Mode 5 Mode U - MSK4k8 437.800 MHz
FM S-band telemetry 2.251 GHz

2 transmitters · refreshed weekly from db.satnogs.org